When you browse on this site, cookies collect data to enhance your experience and personalize the content and advertising you see.
Visit our Privacy Policy to learn more. By continuing to use the site, you agree to this use of cookies and data.
EN

Hourly Weather Biskira

Today, 9 July, Thursday

Time Temperature Precipitation Wind Pressure Humidity
00:00 +35°C° 0 mm 4 mps 752 mmHg 16%
01:00 +35°C° 0 mm 3 mps 752 mmHg 17%
02:00 +34°C° 0 mm 3 mps 752 mmHg 18%
03:00 +33°C° 0 mm 3 mps 751 mmHg 19%
04:00 +33°C° 0 mm 4 mps 752 mmHg 24%
05:00 +32°C° 0 mm 4 mps 752 mmHg 29%
06:00 +32°C° 0 mm 5 mps 752 mmHg 34%
07:00 +34°C° 0 mm 5 mps 752 mmHg 31%
08:00 +35°C° 0 mm 6 mps 752 mmHg 29%
09:00 +38°C° 0 mm 6 mps 753 mmHg 26%
10:00 +39°C° 0 mm 5 mps 752 mmHg 23%
11:00 +40°C° 0 mm 4 mps 752 mmHg 21%
12:00 +41°C° 0 mm 4 mps 752 mmHg 18%
13:00 +42°C° 0 mm 3 mps 751 mmHg 17%
14:00 +41°C° 0 mm 2 mps 750 mmHg 15%
15:00 +42°C° 0 mm 2 mps 750 mmHg 14%
16:00 +42°C° 0 mm 2 mps 750 mmHg 14%
17:00 +42°C° 0 mm 2 mps 749 mmHg 14%
18:00 +41°C° 0 mm 2 mps 749 mmHg 14%
19:00 +40°C° 0 mm 2 mps 750 mmHg 15%
20:00 +39°C° 0 mm 2 mps 750 mmHg 16%
21:00 +37°C° 0 mm 2 mps 751 mmHg 17%
22:00 +37°C° 0 mm 2 mps 751 mmHg 18%
23:00 +36°C° 0 mm 2 mps 751 mmHg 18%

Tomorrow, 10 July, Friday

Time Temperature Precipitation Wind Pressure Humidity
00:00 +36°C° 0 mm 3 mps 751 mmHg 19%
01:00 +34°C° 0 mm 3 mps 750 mmHg 26%
02:00 +33°C° 0 mm 4 mps 750 mmHg 33%
03:00 +30°C° 0 mm 5 mps 750 mmHg 40%
04:00 +30°C° 0 mm 5 mps 750 mmHg 41%
05:00 +30°C° 0 mm 5 mps 750 mmHg 43%
06:00 +30°C° 0 mm 4 mps 751 mmHg 44%
07:00 +33°C° 0 mm 4 mps 751 mmHg 39%
08:00 +34°C° 0 mm 4 mps 751 mmHg 35%
09:00 +35°C° 0 mm 4 mps 751 mmHg 31%
10:00 +37°C° 0 mm 3 mps 751 mmHg 28%
11:00 +38°C° 0 mm 3 mps 750 mmHg 24%
12:00 +40°C° 0 mm 3 mps 750 mmHg 20%
13:00 +40°C° 0 mm 3 mps 749 mmHg 18%
14:00 +41°C° 0 mm 2 mps 749 mmHg 16%
15:00 +42°C° 0 mm 2 mps 748 mmHg 14%
16:00 +42°C° 0 mm 2 mps 749 mmHg 14%
17:00 +42°C° 0 mm 2 mps 749 mmHg 14%
18:00 +42°C° 0 mm 2 mps 749 mmHg 13%
19:00 +41°C° 0 mm 2 mps 749 mmHg 15%
20:00 +40°C° 0 mm 3 mps 750 mmHg 17%
21:00 +38°C° 0 mm 4 mps 750 mmHg 19%
22:00 +38°C° 0 mm 4 mps 750 mmHg 20%
23:00 +37°C° 0 mm 4 mps 750 mmHg 21%

Day after tomorrow, 11 July, Saturday

Time Temperature Precipitation Wind Pressure Humidity
00:00 +36°C° 0 mm 4 mps 750 mmHg 21%
01:00 +35°C° 0 mm 5 mps 750 mmHg 29%
02:00 +33°C° 0 mm 6 mps 750 mmHg 36%
03:00 +32°C° 0 mm 7 mps 750 mmHg 43%
04:00 +32°C° 0 mm 6 mps 750 mmHg 43%
05:00 +32°C° 0 mm 6 mps 750 mmHg 42%
06:00 +32°C° 0 mm 5 mps 751 mmHg 42%
07:00 +33°C° 0 mm 5 mps 751 mmHg 37%
08:00 +35°C° 0 mm 5 mps 751 mmHg 33%
09:00 +36°C° 0 mm 5 mps 751 mmHg 29%
10:00 +37°C° 0 mm 4 mps 751 mmHg 27%
11:00 +38°C° 0 mm 4 mps 751 mmHg 24%
12:00 +40°C° 0 mm 3 mps 750 mmHg 22%
13:00 +42°C° 0 mm 3 mps 750 mmHg 20%
14:00 +43°C° 0 mm 3 mps 749 mmHg 18%
15:00 +44°C° 0 mm 3 mps 749 mmHg 16%
16:00 +43°C° 0 mm 4 mps 749 mmHg 16%
17:00 +43°C° 0 mm 4 mps 749 mmHg 16%
18:00 +43°C° 0 mm 4 mps 749 mmHg 16%
19:00 +42°C° 0 mm 4 mps 750 mmHg 18%
20:00 +40°C° 0 mm 4 mps 750 mmHg 20%
21:00 +38°C° 0 mm 3 mps 751 mmHg 23%
22:00 +37°C° 0 mm 3 mps 751 mmHg 25%
23:00 +36°C° 0 mm 3 mps 751 mmHg 28%

12 July, Sunday

Time Temperature Precipitation Wind Pressure Humidity
00:00 +35°C° 0 mm 3 mps 751 mmHg 30%
01:00 +34°C° 0 mm 2 mps 751 mmHg 34%
02:00 +32°C° 0 mm 2 mps 751 mmHg 38%
03:00 +31°C° 0 mm 1 mps 751 mmHg 42%
04:00 +31°C° 0 mm 1 mps 751 mmHg 41%
05:00 +31°C° 0 mm 1 mps 752 mmHg 40%
06:00 +32°C° 0 mm 1 mps 752 mmHg 39%
07:00 +34°C° 0 mm 2 mps 752 mmHg 36%
08:00 +36°C° 0 mm 2 mps 752 mmHg 33%
09:00 +37°C° 0 mm 3 mps 752 mmHg 30%
10:00 +38°C° 0 mm 3 mps 752 mmHg 26%
11:00 +41°C° 0 mm 4 mps 752 mmHg 22%
12:00 +42°C° 0 mm 4 mps 752 mmHg 19%
13:00 +43°C° 0 mm 3 mps 751 mmHg 17%
14:00 +43°C° 0 mm 3 mps 751 mmHg 16%
15:00 +43°C° 0 mm 2 mps 750 mmHg 15%
16:00 +42°C° 0 mm 2 mps 750 mmHg 15%
17:00 +42°C° 0 mm 2 mps 750 mmHg 14%
18:00 +42°C° 0 mm 2 mps 750 mmHg 14%
19:00 +40°C° 0 mm 2 mps 751 mmHg 16%
20:00 +39°C° 0 mm 1 mps 752 mmHg 17%
21:00 +36°C° 0 mm 1 mps 752 mmHg 18%
22:00 +37°C° 0 mm 2 mps 752 mmHg 21%
23:00 +36°C° 0 mm 3 mps 752 mmHg 23%

13 July, Monday

Time Temperature Precipitation Wind Pressure Humidity
00:00 +36°C° 0 mm 4 mps 752 mmHg 25%
01:00 +35°C° 0 mm 4 mps 751 mmHg 28%
02:00 +33°C° 0 mm 4 mps 751 mmHg 32%
03:00 +32°C° 0 mm 4 mps 751 mmHg 35%
04:00 +32°C° 0 mm 4 mps 751 mmHg 36%
05:00 +31°C° 0 mm 3 mps 752 mmHg 36%
06:00 +31°C° 0 mm 2 mps 752 mmHg 37%
07:00 +34°C° 0 mm 3 mps 752 mmHg 33%
08:00 +35°C° 0 mm 3 mps 752 mmHg 29%
09:00 +37°C° 0 mm 4 mps 752 mmHg 26%
10:00 +38°C° 0 mm 4 mps 752 mmHg 24%
11:00 +40°C° 0 mm 4 mps 751 mmHg 21%
12:00 +41°C° 0 mm 4 mps 751 mmHg 19%
13:00 +42°C° 0 mm 3 mps 750 mmHg 18%
14:00 +42°C° 0 mm 2 mps 749 mmHg 17%
15:00 +42°C° 0 mm 2 mps 749 mmHg 16%
16:00 +43°C° 0 mm 4 mps 749 mmHg 16%
17:00 +44°C° 0 mm 6 mps 749 mmHg 16%
18:00 +43°C° 0 mm 8 mps 749 mmHg 16%
19:00 +41°C° 0 mm 6 mps 750 mmHg 18%
20:00 +39°C° 0 mm 3 mps 750 mmHg 20%
21:00 +36°C° 0 mm 1 mps 750 mmHg 22%
22:00 +36°C° 0 mm 1 mps 750 mmHg 23%
23:00 +35°C° 0 mm 1 mps 749 mmHg 24%

14 July, Tuesday

Time Temperature Precipitation Wind Pressure Humidity
00:00 +35°C° 0 mm 1 mps 749 mmHg 24%
01:00 +35°C° 0 mm 2 mps 749 mmHg 26%
02:00 +34°C° 0 mm 3 mps 748 mmHg 27%
03:00 +34°C° 0 mm 4 mps 748 mmHg 29%
04:00 +34°C° 0 mm 4 mps 749 mmHg 32%
05:00 +33°C° 0 mm 5 mps 749 mmHg 34%
06:00 +33°C° 0 mm 5 mps 750 mmHg 37%
07:00 +35°C° 0 mm 5 mps 750 mmHg 33%
08:00 +38°C° 0 mm 6 mps 750 mmHg 29%
09:00 +39°C° 0 mm 6 mps 750 mmHg 25%
10:00 +41°C° 0 mm 5 mps 749 mmHg 22%
11:00 +42°C° 0 mm 5 mps 749 mmHg 19%
12:00 +43°C° 0 mm 4 mps 749 mmHg 17%
13:00 +44°C° 0 mm 4 mps 748 mmHg 15%
14:00 +45°C° 0 mm 4 mps 748 mmHg 14%
15:00 +45°C° 0 mm 3 mps 747 mmHg 13%
16:00 +45°C° 0 mm 4 mps 747 mmHg 13%
17:00 +45°C° 0 mm 4 mps 747 mmHg 12%
18:00 +46°C° 0 mm 5 mps 747 mmHg 12%
19:00 +43°C° 0 mm 4 mps 747 mmHg 14%
20:00 +42°C° 0 mm 3 mps 748 mmHg 15%
21:00 +39°C° 0 mm 3 mps 748 mmHg 17%
22:00 +40°C° 0 mm 4 mps 749 mmHg 19%
23:00 +39°C° 0 mm 5 mps 749 mmHg 21%
Show more